HOECHSTEN Weather Reports


time (UTC)temp
F
wind
direction
speed
knots
gust
knots
rain 1hr
in
rain 24hr
in
rain mn
in
humidity
%
barometer
mb
20260506133211 54 157 9.6 0.0 0.00 0.00 0.00 76 1003.3
20260506130211 54 205 7.8 0.0 0.00 0.00 0.00 76 1003.2
20260506123210 54 227 7.8 0.0 0.00 0.00 0.00 76 1003.0
20260506120210 55 221 6.1 0.0 0.00 0.00 0.00 76 1002.8
20260506113217 56 197 3.5 0.0 0.00 0.00 0.00 75 1002.7
20260506110210 56 230 2.6 0.0 0.00 0.00 0.00 76 1003.0
20260506100213 54 18 1.7 0.0 0.00 0.00 0.00 76 1003.3
20260506093211 53 34 7.0 0.0 0.00 0.00 0.00 76 1003.2
20260506090211 53 56 4.3 0.0 0.00 0.00 0.00 76 1003.5
20260506083211 54 232 4.3 0.0 0.00 0.00 0.00 75 1003.5
20260506080212 53 334 2.6 0.0 0.00 0.00 0.00 75 1003.3
20260506073211 53 235 2.6 0.0 0.00 0.00 0.00 75 1003.4
20260506070212 51 244 3.5 0.0 0.00 0.00 0.00 75 1003.4
20260506060210 50 213 6.1 0.0 0.00 0.00 0.00 74 1003.3
20260506050211 49 233 3.5 0.0 0.00 0.00 0.00 72 1003.6
20260506043211 48 227 6.1 0.0 0.00 0.00 0.00 71 1003.7
20260506040211 48 242 3.5 0.0 0.00 0.00 0.00 69 1004.1
20260506033211 48 248 2.6 0.0 0.00 0.00 0.00 69 1004.4
20260506030212 48 214 7.0 0.0 0.00 0.00 0.00 70 1004.8
20260506023211 48 194 6.1 0.0 0.00 0.00 0.00 72 1004.7
20260506020212 49 217 9.6 0.0 0.00 0.00 0.00 72 1004.9
20260506013211 49 221 8.7 0.0 0.00 0.00 0.00 70 1005.1
20260506010212 49 223 7.8 0.0 0.00 0.00 0.00 67 1005.4
20260506003209 48 209 7.8 0.0 0.00 0.00 0.00 68 1005.7
20260506000211 48 224 5.2 0.0 0.00 0.00 0.00 69 1005.5
20260505233209 49 197 7.8 0.0 0.00 0.00 0.00 70 1005.8
20260505230209 49 196 7.0 0.0 0.00 0.00 0.00 70 1006.0
20260505223210 49 204 7.0 0.0 0.00 0.00 0.00 72 1006.0
20260505213211 49 207 8.7 0.0 0.00 0.00 0.00 74 1006.0
20260505210215 50 258 9.6 0.0 0.00 0.00 0.00 76 1006.2
20260505203209 50 196 9.6 0.0 0.00 0.00 0.00 77 1006.2
20260505200210 51 187 9.6 0.0 0.00 0.00 0.00 77 1005.9
20260505193209 51 238 15.6 0.0 0.00 0.00 0.00 77 1005.7
20260505190215 51 211 17.4 0.0 0.00 0.00 0.00 77 1005.3
20260505183212 53 191 12.2 0.0 0.00 0.00 0.00 78 1004.9
20260505180211 55 199 13.0 0.0 0.00 0.00 0.00 77 1004.7
20260505173210 56 154 13.9 0.0 0.00 0.00 0.00 76 1004.5
20260505170210 57 211 10.4 0.0 0.00 0.00 0.00 73 1004.3
20260505163211 60 238 9.6 0.0 0.00 0.00 0.00 71 1004.1
20260505153210 59 80 2.6 0.0 0.00 0.00 0.00 74 1004.0
20260505150215 58 50 3.5 0.0 0.00 0.00 0.00 75 1003.8
20260505140210 58 9 3.5 0.0 0.00 0.00 0.00 71 1004.1